METEOR-M2 4

Last updated on Wed Sep 17 2025 00:02:23 GMT+0000 (Coordinated Universal Time)

1 59051U 24039A 25259.61936126 .00000030 00000+0 33112-4 0 9991 2 59051 98.6595 217.9620 0005995 237.7268 122.3330 14.22380273 80378
UTC large
Height (km)
Speed (km/s)
/
Latitude / Longitude
Inclination (degrees)
Orbital Period (minutes)
Azimuth
Elevation
Range (km)
Doppler Factor

Next 0 passes for location: London (51.5072 / 0.1276)

Sorry there are no passes over London.